Home   Weather   Ulm   Past weeks

Flag for Germany Past Weather in Ulm, Baden-Württemberg, Germany — Yesterday and Last 2 Weeks

Now
41 °F

Light rain. Partly cloudy.


Feels Like: 32 °F
Forecast: 35 / 45 °F
Wind: 18 mph from Southwest

Location: Laupheim Airport

Current Time: Mar 1, 2017 at 8:54:28 pm

Latest Report: Mar 1, 2017 at 8:20 pm


Visibility: N/A

Pressure: 29.77 "Hg

Humidity: 81%

Dew Point: 36 °F

Location of UlmLocation

Past Weather in Ulm — Graph

°F

Ulm Temperature Yesterday

Maximum temperature yesterday: 48 °F (at 2:20 am)
Minimum temperature yesterday: 34 °F (at 6:20 am)
Average temperature yesterday: 39 °F

High & Low Weather Summary for the Past Weeks

 TemperatureHumidityPressure
High61 °F (Feb 23, 3:01 pm)100% (Feb 14, 9:20 pm)30.54 "Hg (Feb 14, 9:20 pm)
Low23 °F (Feb 15, 2:20 am)29% (Feb 23, 3:01 pm)29.39 "Hg (Feb 28, 2:20 pm)
Average40 °F77%30.04 "Hg
* Reported Feb 14 7:20 pm — Mar 1 7:20 pm, Ulm, Weather by CustomWeather, © 2017

Note: Actual official high and low records may vary slightly from our data, if they occured in-between our weather recording intervals... More about our weather records

Advertising

Ulm Weather History for the Previous 24 Hours

Scroll right to see more
 ConditionsComfort  
Time TempWeatherWind HumidityBarometerVisibility
7:20 pm
Wed, Mar 1
41 °FLight rain. Passing clouds.14 mph76%29.77 "HgN/A
6:20 pm43 °FPartly cloudy.12 mph66%29.77 "HgN/A
5:20 pm43 °FMostly cloudy.17 mph71%29.77 "HgN/A
4:20 pm43 °FMore clouds than sun.20 mph71%29.80 "HgN/A
3:20 pm43 °FPartly sunny.18 mph71%29.77 "HgN/A
2:20 pm43 °FPartly sunny.20 mph66%29.77 "HgN/A
1:20 pm43 °FPartly sunny.17 mph66%29.80 "HgN/A
12:20 pm41 °FPartly sunny.20 mph70%29.80 "HgN/A
11:20 am39 °FScattered showers. Partly sunny.20 mph75%29.80 "HgN/A
10:20 am39 °FBroken clouds.22 mph75%29.77 "HgN/A
9:20 am39 °FBroken clouds.20 mph75%29.77 "HgN/A
8:20 am37 °FPassing clouds.21 mph81%29.71 "HgN/A
7:20 am36 °FPassing clouds.20 mph81%29.71 "HgN/A
6:20 am36 °FPassing clouds.16 mph81%29.68 "HgN/A
5:20 am36 °FPassing clouds.16 mph75%29.65 "HgN/A
4:20 am36 °FPassing clouds.14 mph81%29.65 "HgN/A
3:20 am36 °FPassing clouds.14 mph81%29.65 "HgN/A
2:20 am36 °FPassing clouds.15 mph81%29.65 "HgN/A
1:20 am37 °FPassing clouds.16 mph81%29.65 "HgN/A
12:20 am37 °FPassing clouds.13 mph81%29.62 "HgN/A
11:20 pm
Tue, Feb 28
37 °FPassing clouds.16 mph81%29.59 "HgN/A
10:20 pm39 °FPassing clouds.22 mph75%29.53 "HgN/A
9:20 pm37 °FPartly cloudy.14 mph81%29.50 "HgN/A
8:20 pm39 °FPassing clouds.18 mph81%29.50 "HgN/A
Weather by CustomWeather, © 2017

See weather overviewHow to use our weather pages